Tracking 20232 objects as of 18-Jan-2020
HD Live streaming from Space Station
objects crossing your sky now

LANDSAT 4

Track LANDSAT 4 now!
10-day predictions
LANDSAT 4 is classified as:


NORAD ID: 13367
Int'l Code: 1982-072A
Perigee: 514.0 km
Apogee: 530.4 km
Inclination: 98.2 °
Period: 94.9 minutes
Semi major axis: 6893 km
RCS: 7.754 m2 (large)
Launch date: July 16, 1982
Source: United States (US)
Launch site: AIR FORCE WESTERN TEST RANGE (AFWTR)
aabbcc
Your satellite tracking list
Your tracking list is empty




NASA's NSSDC Master Catalog

Two Line Element Set (TLE):
1 13367U 82072A   20017.32234230 +.00000361 +00000-0 +22299-4 0  9996
2 13367 098.1929 275.9546 0011863 223.5578 252.9224 15.16954196453420
Source of the keplerian elements: AFSPC